Temp
72 74 73 75 66 60 55 63 71 74 75 79 81 76 70 72 70 58 71 75 76 74 77 80 80 80 80 80 80 79 79 79 79 79 79 79 79 79 80 79 80 81 81 81 81 81 81 81 81
75 77 73 68 59 54 55 67 68 73 79 82 81 78 74 68 75 70 69 76 75 75 74 77 80 80 80 80 79 79 79 79 79 79 79 79 79 79 80 80 80 81 81 81 81 80 80 80 80
75 78 68 63 56 55 59 70 73 78 81 80 78 81 75 69 75 74 75 76 74 72 73 77 79 79 80 80 79 79 79 79 79 79 79 79 79 79 79 79 80 81 81 81 80 80 80 80 80
76 72 68 61 61 65 66 71 78 79 79 80 78 72 78 83 79 77 78 77 72 72 74 78 79 79 80 80 79 79 79 79 79 79 79 79 79 78 78 79 79 80 80 80 80 80 80 80 80
72 65 59 54 63 70 78 78 78 77 75 76 77 72 72 81 83 80 78 77 72 72 74 76 79 79 80 80 79 79 79 79 79 79 79 79 78 78 78 79 79 79 80 80 80 80 79 79 79
68 64 56 52 61 70 71 73 79 75 76 77 76 74 72 82 81 80 79 75 75 73 73 75 79 79 79 79 79 79 78 78 78 78 78 78 78 78 78 79 79 79 79 79 79 79 79 78 78
64 61 56 59 62 67 74 75 75 74 76 74 79 73 76 79 82 82 79 76 75 74 72 73 74 77 79 79 78 78 78 78 78 78 78 78 78 78 78 78 79 79 79 79 79 79 78 78 78
70 64 56 57 65 64 74 71 75 76 75 87 86 71 71 79 83 82 79 76 74 74 74 72 73 73 73 74 79 78 78 78 78 78 78 78 78 79 79 78 78 79 79 79 79 79 78 77 77
73 61 56 60 65 63 71 67 79 80 79 79 83 82 83 84 84 79 76 74 73 75 70 71 71 72 72 73 76 78 79 79 79 78 78 77 73 74 76 78 78 79 79 79 79 78 78 78 77
68 58 60 73 73 65 69 70 73 76 76 77 79 85 85 84 81 77 75 74 74 74 73 72 71 71 72 81 74 72 75 74 74 74 73 73 72 72 77 78 79 79 79 79 79 79 78 78 75
67 64 71 75 76 75 74 74 83 77 73 78 78 81 84 83 81 79 79 78 76 77 78 76 74 74 74 77 72 71 72 72 72 74 73 72 75 73 74 73 74 74 77 74 75 75 75 74 74
69 73 73 74 78 76 75 77 77 77 76 80 82 85 84 83 82 81 80 79 79 78 79 79 78 75 75 75 73 72 73 73 72 73 73 72 72 73 74 74 74 73 74 73 73 73 74 73 74
69 68 74 75 69 68 74 71 72 74 78 80 84 85 80 76 76 77 79 79 81 79 79 78 79 77 76 75 75 74 73 73 73 74 75 73 72 71 73 74 74 73 73 74 74 74 74 73 75
70 72 70 66 68 69 71 68 72 77 80 79 81 80 77 77 77 76 77 77 77 77 77 78 78 77 77 75 75 76 76 74 74 74 74 73 71 70 72 72 71 72 73 72 71 71 72 72 71
72 64 66 66 67 67 72 66 69 77 78 76 77 77 76 76 77 74 74 74 75 75 76 77 77 78 77 75 75 74 75 74 72 72 73 72 71 70 69 68 68 69 70 70 70 70 68 69 71
71 66 58 65 69 71 70 60 69 78 76 74 77 77 75 74 74 74 74 73 74 75 74 74 82 76 74 74 73 73 72 72 72 71 71 72 72 70 68 68 67 68 68 67 66 66 67 66 66
62 57 58 64 71 73 66 62 72 78 77 76 75 74 74 72 72 73 74 72 71 71 72 72 73 73 74 73 73 72 70 71 68 70 70 70 71 70 66 66 66 65 65 65 65 64 64 64 66
54 58 60 62 69 70 64 66 71 74 78 74 73 73 72 72 70 72 72 72 71 71 71 71 72 72 72 73 71 71 70 68 66 65 67 66 67 67 64 64 64 65 65 64 65 62 64 63 64
64 62 61 69 72 67 66 69 72 77 75 72 72 71 70 70 70 71 72 71 70 69 68 68 69 69 71 70 72 66 64 64 63 64 65 65 65 65 63 62 62 62 62 61 63 61 61 62 64
66 63 61 70 73 68 64 69 74 74 75 75 73 72 70 68 69 70 69 69 68 66 66 66 66 67 68 68 66 66 65 63 63 62 63 64 64 63 63 60 59 59 59 59 59 59 59 59 60
63 62 62 65 69 69 66 59 64 71 75 77 76 75 72 69 67 67 67 66 66 65 65 65 64 64 65 66 68 66 63 62 60 60 60 62 64 63 62 61 59 58 57 56 57 57 58 56 58
59 70 71 69 63 56 64 50 59 65 70 73 74 71 71 70 69 68 66 64 64 63 64 63 63 63 64 64 65 64 60 59 58 58 58 60 63 63 63 62 60 58 57 56 56 59 57 57 55
68 71 67 67 58 55 56 52 58 63 63 66 66 69 70 70 69 68 66 66 65 63 62 61 61 61 61 62 62 60 58 58 57 58 58 58 58 62 64 61 60 59 57 57 57 57 56 55 54
74 67 61 57 53 47 53 53 54 58 63 73 67 70 70 70 70 68 68 66 65 63 61 60 60 59 59 60 59 60 59 57 57 56 56 56 56 58 61 63 60 59 58 58 57 57 57 55 54
66 54 45 45 45 46 55 53 56 63 67 72 68 69 70 71 69 67 65 65 63 62 60 60 59 58 59 59 59 59 58 58 57 56 56 56 56 57 59 59 60 59 59 59 58 57 56 55 55
60 57 46 41 41 47 57 50 57 67 69 71 73 71 70 69 69 67 67 65 64 63 61 61 59 58 59 59 59 59 58 57 57 57 56 56 57 58 59 60 60 60 61 60 58 57 56 56 55
61 55 59 50 46 45 49 56 64 67 68 68 69 69 68 68 68 68 67 66 65 63 62 61 59 59 59 59 59 60 59 59 58 59 59 58 58 62 60 60 59 59 59 59 59 58 59 55 54
67 68 54 47 40 38 46 50 52 59 64 66 65 65 66 68 68 68 68 66 66 65 63 63 62 60 60 60 62 61 60 60 60 59 58 58 58 58 58 58 58 57 57 57 56 59 56 55 55
61 56 53 51 47 41 39 47 59 62 63 65 66 68 68 67 68 68 69 68 68 66 65 64 63 62 61 64 61 60 60 60 59 58 57 57 56 56 56 56 56 56 56 55 54 54 59 58 57
66 60 55 45 46 45 44 46 64 65 66 66 66 68 68 70 69 70 70 68 67 66 65 64 65 64 65 64 61 61 60 58 56 56 56 57 56 56 58 55 55 55 56 54 53 54 54 53 53
MSLP
1011.29 1011.68 1012.07 1012.08 1013.00 1013.63 1013.69 1013.03 1011.81 1010.83 1010.44 1010.21 1009.78 1010.54 1012.22 1012.16 1013.17 1015.30 1015.30 1015.81 1016.19 1016.27 1016.16 1016.14 1016.22 1016.45 1016.54 1016.81 1016.98 1017.15 1017.27 1017.38 1017.48 1017.57 1017.61 1017.68 1017.71 1017.68 1017.64 1017.58 1017.55 1017.54 1017.55 1017.54 1017.51 1017.46 1017.35 1017.26 1017.31
1011.25 1011.85 1012.14 1012.04 1012.73 1013.42 1013.49 1012.48 1011.80 1011.36 1010.58 1009.93 1010.06 1010.98 1011.44 1013.38 1013.71 1015.16 1015.85 1016.30 1016.52 1016.33 1016.07 1016.20 1016.40 1016.54 1016.74 1017.00 1017.20 1017.32 1017.43 1017.55 1017.64 1017.71 1017.78 1017.88 1017.91 1017.89 1017.82 1017.76 1017.71 1017.68 1017.71 1017.73 1017.70 1017.66 1017.59 1017.48 1017.47
1011.22 1011.44 1012.75 1012.99 1013.55 1013.35 1012.75 1012.07 1011.35 1011.22 1010.67 1010.07 1010.27 1010.98 1012.52 1014.34 1014.74 1015.09 1015.44 1016.24 1016.75 1016.59 1016.48 1016.45 1016.61 1016.81 1017.01 1017.26 1017.33 1017.40 1017.53 1017.67 1017.78 1017.84 1017.91 1017.96 1018.04 1018.08 1018.01 1017.92 1017.86 1017.82 1017.82 1017.84 1017.82 1017.76 1017.67 1017.55 1017.40
1011.38 1011.98 1012.91 1013.16 1013.00 1012.22 1011.75 1011.29 1010.78 1010.20 1010.66 1010.74 1010.85 1011.92 1012.98 1013.53 1014.11 1014.79 1015.84 1016.21 1016.66 1016.67 1016.72 1016.80 1016.94 1017.05 1017.18 1017.37 1017.52 1017.56 1017.60 1017.74 1017.86 1017.95 1018.04 1018.11 1018.14 1018.14 1018.10 1018.04 1018.00 1017.96 1017.93 1017.93 1017.92 1017.86 1017.76 1017.63 1017.42
1011.65 1012.48 1012.92 1013.43 1012.52 1011.60 1010.69 1010.62 1010.33 1010.39 1010.62 1011.09 1011.07 1012.50 1013.19 1013.76 1014.16 1015.20 1015.81 1016.15 1016.34 1016.76 1016.72 1016.84 1016.98 1017.13 1017.27 1017.36 1017.50 1017.67 1017.75 1017.83 1017.96 1018.08 1018.13 1018.15 1018.13 1018.14 1018.11 1018.02 1017.94 1017.91 1017.89 1017.88 1017.83 1017.77 1017.69 1017.58 1017.43
1012.13 1012.56 1013.02 1013.40 1012.66 1011.99 1011.71 1011.71 1010.83 1010.22 1010.77 1011.36 1011.36 1012.19 1013.81 1014.32 1014.53 1015.20 1015.56 1016.03 1016.13 1016.62 1016.87 1016.87 1017.04 1017.22 1017.34 1017.40 1017.52 1017.73 1017.84 1017.88 1017.96 1018.08 1018.16 1018.19 1018.17 1018.12 1018.03 1017.95 1017.90 1017.81 1017.74 1017.69 1017.63 1017.54 1017.46 1017.39 1017.29
1011.87 1012.42 1012.60 1012.76 1012.92 1012.38 1012.12 1012.09 1011.15 1010.63 1010.85 1011.06 1011.10 1011.75 1013.73 1014.56 1014.81 1015.19 1015.57 1015.86 1016.14 1016.46 1016.72 1016.95 1017.04 1017.12 1017.28 1017.43 1017.56 1017.67 1017.81 1017.86 1017.88 1017.95 1018.05 1018.11 1018.06 1017.91 1017.79 1017.82 1017.75 1017.68 1017.59 1017.57 1017.50 1017.38 1017.27 1017.22 1017.15
1010.95 1011.72 1011.94 1012.32 1012.43 1012.80 1012.23 1012.36 1011.52 1011.65 1011.50 1011.48 1011.23 1012.15 1013.16 1013.87 1014.66 1015.36 1015.84 1015.95 1016.26 1016.46 1016.57 1016.76 1016.97 1017.09 1017.19 1017.24 1017.38 1017.47 1017.59 1017.60 1017.64 1017.72 1017.79 1017.84 1017.87 1017.75 1017.67 1017.71 1017.67 1017.52 1017.41 1017.34 1017.24 1017.21 1017.13 1017.06 1016.96
1009.84 1010.95 1012.07 1011.78 1012.21 1013.14 1012.59 1012.71 1011.45 1011.67 1011.49 1011.77 1011.61 1011.89 1012.37 1013.56 1014.52 1015.53 1016.22 1016.48 1016.60 1016.79 1016.87 1016.88 1017.00 1017.10 1017.24 1017.27 1017.35 1017.50 1017.48 1017.47 1017.45 1017.57 1017.57 1017.61 1017.73 1017.64 1017.50 1017.44 1017.43 1017.31 1017.22 1017.16 1017.01 1016.97 1016.91 1016.74 1016.62
1009.72 1011.41 1011.31 1010.92 1011.00 1012.83 1013.08 1012.35 1011.53 1011.61 1012.17 1012.09 1012.10 1012.19 1012.58 1013.69 1014.42 1015.01 1015.58 1015.81 1016.24 1016.42 1016.70 1017.03 1017.00 1017.11 1017.30 1017.01 1017.38 1017.66 1017.54 1017.51 1017.63 1017.59 1017.57 1017.63 1017.69 1017.73 1017.49 1017.27 1017.19 1017.00 1016.99 1016.96 1016.90 1016.77 1016.61 1016.40 1016.18
1009.49 1010.95 1010.90 1011.21 1010.88 1010.81 1012.07 1012.14 1010.96 1010.56 1010.88 1011.82 1012.11 1012.01 1012.72 1013.83 1014.01 1014.13 1014.87 1014.75 1015.30 1015.75 1016.34 1016.50 1016.64 1016.94 1017.01 1016.86 1017.26 1017.55 1017.57 1017.76 1017.61 1017.52 1017.55 1017.72 1017.81 1017.69 1017.44 1017.32 1017.23 1017.15 1017.29 1017.28 1017.11 1016.80 1016.53 1016.26 1016.25
1009.71 1010.09 1010.54 1011.52 1010.82 1011.00 1011.22 1011.49 1011.27 1010.42 1010.54 1010.90 1011.97 1012.10 1012.53 1013.19 1013.65 1013.97 1014.57 1014.92 1015.44 1015.81 1015.94 1016.12 1016.36 1016.55 1016.77 1016.93 1016.94 1017.22 1017.32 1017.45 1017.55 1017.60 1017.78 1018.00 1018.12 1017.73 1017.43 1017.55 1017.58 1017.58 1017.49 1017.32 1017.11 1016.85 1016.42 1016.12 1015.87
1009.27 1010.57 1011.06 1011.03 1011.50 1011.59 1011.66 1011.96 1011.93 1011.43 1010.93 1011.50 1012.08 1012.59 1013.08 1013.68 1013.96 1014.14 1014.37 1014.70 1015.21 1015.57 1015.92 1016.08 1016.04 1016.44 1016.40 1016.85 1016.84 1016.82 1017.20 1017.53 1017.80 1017.81 1017.88 1018.08 1018.05 1017.94 1017.67 1017.75 1017.76 1017.74 1017.59 1017.44 1017.25 1016.96 1016.58 1016.24 1015.79
1009.29 1009.91 1011.14 1012.12 1011.97 1012.28 1011.93 1012.46 1012.26 1011.65 1011.26 1011.99 1012.25 1013.00 1013.75 1014.09 1014.26 1014.49 1014.60 1015.16 1015.40 1015.67 1016.04 1016.22 1016.28 1016.15 1016.39 1016.78 1016.90 1017.15 1017.46 1017.73 1017.93 1018.16 1018.24 1018.29 1018.28 1018.17 1018.13 1018.21 1018.10 1017.95 1017.81 1017.70 1017.53 1017.22 1016.75 1016.49 1016.09
1009.85 1011.26 1012.58 1012.99 1012.38 1012.68 1012.19 1013.06 1012.22 1012.16 1012.36 1012.38 1012.84 1013.56 1014.21 1014.60 1014.82 1014.99 1015.35 1015.61 1015.64 1015.93 1015.90 1015.84 1015.86 1015.70 1016.10 1016.57 1016.95 1017.47 1017.79 1018.08 1018.34 1018.56 1018.57 1018.53 1018.49 1018.51 1018.48 1018.55 1018.49 1018.32 1018.12 1017.92 1017.67 1017.37 1016.96 1016.64 1016.06
1009.16 1010.66 1012.63 1012.87 1012.58 1012.26 1011.63 1012.83 1012.28 1011.22 1012.13 1012.91 1013.08 1013.68 1014.33 1014.91 1015.16 1015.38 1015.61 1015.89 1015.84 1015.99 1016.18 1016.07 1015.94 1016.20 1016.52 1016.90 1017.34 1017.85 1018.23 1018.38 1018.64 1018.70 1018.77 1018.78 1018.77 1018.78 1018.80 1018.87 1018.84 1018.62 1018.44 1018.27 1018.03 1017.78 1017.42 1017.09 1016.68
1009.81 1010.20 1010.51 1011.69 1011.12 1010.94 1011.87 1012.33 1011.76 1011.17 1011.87 1012.73 1013.02 1013.63 1014.34 1015.07 1015.64 1015.90 1015.99 1016.22 1016.37 1016.45 1016.59 1016.53 1016.46 1016.67 1017.08 1017.31 1017.76 1018.21 1018.67 1018.87 1019.19 1019.06 1019.17 1019.16 1019.11 1019.18 1019.26 1019.31 1019.27 1019.06 1018.96 1018.78 1018.59 1018.24 1017.97 1017.59 1017.07
1010.57 1010.56 1010.21 1010.22 1010.40 1010.79 1011.44 1011.21 1011.36 1011.42 1011.73 1012.19 1012.71 1013.39 1014.05 1014.81 1015.46 1015.86 1016.34 1016.66 1016.83 1016.94 1017.01 1017.04 1017.09 1017.39 1017.66 1017.65 1018.24 1018.74 1019.15 1019.49 1019.56 1019.54 1019.62 1019.70 1019.73 1019.67 1019.67 1019.69 1019.61 1019.45 1019.34 1019.37 1019.00 1018.72 1018.34 1018.11 1017.60
1009.96 1009.94 1009.81 1008.96 1007.92 1008.94 1009.81 1010.26 1010.63 1011.00 1011.62 1012.05 1012.42 1012.96 1013.70 1014.57 1015.39 1015.72 1016.30 1016.74 1016.94 1017.27 1017.46 1017.65 1017.76 1017.93 1017.96 1018.16 1018.61 1019.13 1019.81 1020.02 1020.15 1020.11 1020.07 1020.11 1020.13 1020.13 1020.15 1020.19 1020.10 1019.99 1020.02 1019.93 1019.65 1019.27 1018.95 1018.52 1018.00
1009.54 1009.44 1009.07 1008.32 1007.88 1008.38 1009.90 1010.11 1010.04 1010.24 1010.09 1010.43 1011.38 1012.47 1013.59 1014.77 1015.49 1015.71 1016.27 1016.81 1017.27 1017.76 1018.05 1018.18 1018.24 1018.25 1018.28 1018.32 1018.67 1019.22 1019.88 1020.29 1020.43 1020.54 1020.58 1020.52 1020.49 1020.50 1020.51 1020.61 1020.62 1020.50 1020.46 1020.26 1020.02 1019.79 1019.63 1019.25 1018.76
1008.99 1008.71 1008.60 1008.34 1008.22 1008.70 1009.79 1010.78 1010.89 1010.64 1010.66 1010.74 1011.18 1012.04 1012.99 1013.76 1014.90 1015.72 1016.25 1016.66 1017.20 1017.79 1018.21 1018.51 1018.64 1018.61 1018.68 1018.84 1019.06 1019.74 1020.17 1020.65 1021.05 1021.19 1021.13 1020.95 1020.68 1020.67 1020.72 1020.80 1020.88 1020.90 1020.81 1020.78 1020.56 1020.19 1019.98 1019.89 1019.42
1008.12 1007.75 1008.14 1008.28 1008.98 1009.68 1009.71 1011.30 1010.91 1010.43 1010.51 1010.63 1011.36 1012.33 1012.98 1013.97 1014.92 1015.42 1016.04 1016.90 1017.33 1017.73 1018.13 1018.60 1018.90 1018.97 1019.02 1019.19 1019.46 1019.91 1020.42 1020.87 1021.23 1021.30 1021.36 1021.21 1020.96 1020.91 1020.90 1020.95 1021.02 1021.09 1021.01 1020.88 1020.67 1020.43 1020.35 1020.20 1020.25
1007.12 1007.31 1007.98 1008.54 1009.70 1010.34 1010.83 1011.28 1010.14 1009.84 1010.60 1010.59 1011.20 1011.83 1012.67 1013.27 1014.05 1015.13 1015.73 1016.35 1016.94 1017.58 1018.18 1018.70 1019.16 1019.40 1019.41 1019.46 1019.65 1020.15 1020.71 1020.87 1021.20 1021.55 1021.70 1021.79 1021.62 1021.33 1021.18 1021.17 1021.16 1021.11 1021.07 1020.95 1020.80 1020.64 1020.59 1020.53 1020.57
1006.82 1007.93 1009.04 1009.95 1010.96 1011.98 1011.46 1011.36 1010.69 1009.88 1009.43 1009.20 1010.41 1011.31 1012.22 1013.25 1014.20 1015.08 1015.72 1016.36 1017.19 1017.71 1018.25 1018.73 1019.36 1019.86 1019.89 1019.94 1020.16 1020.37 1020.96 1021.40 1021.67 1022.05 1022.24 1022.21 1022.08 1021.78 1021.43 1021.25 1021.24 1021.12 1020.98 1020.97 1020.78 1020.63 1020.54 1020.48 1020.41
1007.36 1009.28 1011.09 1012.32 1012.72 1012.56 1011.51 1011.39 1010.42 1009.10 1008.09 1007.88 1008.79 1010.56 1011.90 1012.81 1013.92 1014.90 1015.58 1016.48 1017.21 1017.72 1018.17 1018.77 1019.53 1020.15 1020.29 1020.38 1020.56 1020.75 1021.18 1021.50 1021.96 1022.19 1022.36 1022.43 1022.26 1021.97 1021.73 1021.46 1021.35 1021.23 1021.14 1020.85 1020.73 1020.70 1020.75 1020.67 1020.45
1007.89 1009.35 1011.31 1012.66 1013.66 1013.05 1011.62 1010.90 1010.24 1009.55 1008.55 1007.18 1008.38 1009.70 1011.59 1012.98 1013.98 1014.67 1015.34 1016.08 1016.84 1017.49 1017.93 1018.54 1019.39 1020.06 1020.29 1020.51 1020.91 1021.27 1021.55 1021.61 1021.89 1022.08 1022.18 1022.20 1022.06 1021.91 1021.70 1021.66 1021.53 1021.32 1021.01 1020.79 1020.72 1020.75 1020.66 1020.52 1020.46
1007.94 1009.38 1010.46 1012.09 1013.56 1013.83 1012.53 1011.08 1010.27 1009.69 1009.20 1008.94 1009.67 1010.64 1011.59 1012.50 1013.38 1014.12 1015.02 1015.82 1016.50 1017.22 1017.69 1018.13 1019.00 1019.84 1020.26 1020.64 1020.99 1021.12 1021.26 1021.44 1021.71 1021.79 1021.92 1022.04 1022.01 1021.73 1021.81 1021.79 1021.69 1021.46 1021.31 1021.10 1020.85 1020.94 1020.66 1020.51 1020.48
1006.98 1008.55 1010.58 1012.55 1013.99 1014.33 1013.24 1011.93 1011.03 1010.44 1010.00 1010.09 1010.64 1011.28 1012.13 1012.44 1013.18 1013.93 1014.53 1015.11 1015.79 1016.50 1017.26 1018.04 1018.53 1019.32 1019.83 1020.21 1020.50 1020.75 1020.96 1021.18 1021.41 1021.66 1021.94 1022.13 1022.23 1022.13 1022.12 1022.07 1021.95 1021.86 1021.73 1021.53 1021.32 1021.14 1020.89 1020.74 1020.51
1007.64 1008.80 1010.66 1012.42 1013.62 1014.33 1013.91 1012.43 1010.40 1010.02 1009.92 1010.13 1010.31 1010.57 1011.11 1011.77 1012.41 1013.04 1013.71 1014.33 1014.89 1015.91 1016.78 1017.45 1017.97 1018.54 1019.21 1019.60 1020.12 1020.58 1020.95 1021.26 1021.66 1021.95 1022.23 1022.45 1022.38 1022.40 1022.52 1022.36 1022.24 1022.15 1022.02 1021.78 1021.66 1021.41 1021.25 1021.07 1020.88
1007.67 1008.90 1010.00 1012.51 1013.48 1013.85 1013.36 1011.77 1009.88 1009.52 1009.53 1009.40 1009.62 1009.86 1010.25 1010.52 1011.30 1012.17 1012.92 1013.78 1014.85 1015.62 1016.40 1016.96 1017.58 1017.95 1018.30 1019.42 1019.87 1020.35 1020.81 1021.58 1022.05 1022.16 1022.23 1022.37 1022.42 1022.38 1022.43 1022.52 1022.39 1022.32 1022.24 1022.07 1021.91 1021.77 1021.54 1021.32 1021.06
Wind_Speed
2 3 2 3 5 5 2 4 5 3 5 8 11 12 11 11 3 5 3 9 12 10 9 11 15 14 15 14 13 11 10 10 10 10 9 9 9 9 9 8 8 9 9 8 7 5 5 5 6
1 4 4 2 5 5 4 2 1 3 11 16 17 12 16 7 7 11 7 11 9 9 7 9 15 14 15 14 11 10 10 10 10 9 9 8 8 9 9 8 8 9 8 7 5 5 5 6 7
2 2 4 5 3 1 1 4 5 2 2 5 6 7 7 5 9 8 10 14 7 6 5 10 14 13 14 12 11 11 10 9 9 8 8 7 7 7 6 6 5 6 6 4 3 2 3 5 8
2 5 5 5 5 4 6 5 16 16 7 11 9 10 6 9 4 8 15 12 10 7 6 11 13 13 13 12 10 10 10 9 8 7 6 5 5 4 4 4 3 3 2 1 1 3 4 7 9
4 4 3 4 5 3 15 16 11 16 9 9 5 7 5 5 16 19 16 14 13 8 6 8 13 13 13 12 11 9 8 7 6 6 5 5 5 4 3 2 2 2 3 3 5 6 6 7 9
4 3 5 3 6 5 5 2 14 18 18 18 16 10 5 15 19 15 14 12 12 11 6 7 12 11 11 10 10 8 7 6 6 5 5 4 4 4 4 5 6 6 7 7 8 8 8 8 9
5 4 4 6 7 5 8 3 7 12 15 5 12 13 9 13 13 13 12 12 11 10 9 6 6 10 12 11 10 10 9 8 7 7 6 5 6 6 8 8 9 9 9 9 10 10 10 10 11
6 5 0 3 10 5 2 2 6 9 3 10 12 6 11 13 17 12 11 11 11 10 9 8 7 6 7 7 13 13 12 11 10 9 9 8 8 9 10 9 10 11 11 11 12 12 12 12 12
5 4 5 3 9 2 2 1 3 2 8 3 2 7 8 21 17 11 8 5 5 7 6 6 6 6 5 5 7 10 13 12 11 9 10 7 4 5 8 9 11 12 13 13 13 13 12 13 13
4 5 4 7 17 8 3 4 1 6 7 6 7 11 10 20 17 17 14 12 9 10 8 7 6 6 6 6 4 4 5 3 4 4 5 4 4 4 7 9 11 14 13 14 13 14 14 12 5
3 5 6 10 19 18 11 7 8 14 9 5 16 17 12 17 17 17 15 16 15 11 8 10 9 7 7 4 4 3 3 2 3 5 5 3 3 4 2 2 4 3 5 4 5 6 5 7 5
7 14 7 13 17 18 19 10 10 7 5 10 6 11 10 15 16 14 13 8 12 11 10 11 9 8 7 4 4 4 3 3 3 3 4 3 2 3 4 3 4 4 3 4 4 3 5 6 6
14 4 7 9 6 9 10 8 2 4 6 1 5 7 5 8 8 7 9 8 11 8 7 6 9 8 7 6 3 2 2 1 4 4 5 4 4 3 4 5 5 5 4 6 6 5 5 6 6
3 12 11 3 9 5 9 2 2 8 8 8 6 7 8 9 9 10 12 10 11 8 8 8 8 7 7 6 5 7 6 6 7 6 7 7 4 4 6 6 6 6 5 4 4 5 6 6 4
18 15 6 4 5 6 10 6 5 6 4 4 5 12 11 8 7 8 7 8 9 6 5 5 7 6 7 7 8 7 6 6 7 6 6 7 6 6 5 4 4 4 4 6 5 6 5 6 7
6 11 8 12 9 11 7 7 8 13 12 8 13 12 12 7 8 7 7 7 7 7 7 6 7 7 8 10 8 7 6 6 6 6 5 7 7 7 6 5 6 5 5 4 4 4 5 5 6
8 2 2 8 17 13 4 8 14 10 14 16 15 13 12 10 8 7 8 8 8 7 7 8 7 8 9 9 9 8 7 7 4 6 6 8 9 8 6 6 6 6 5 5 4 4 3 4 7
2 4 6 6 12 13 14 10 19 16 20 17 15 13 13 12 9 9 9 8 7 7 7 7 6 7 6 8 8 7 6 5 4 5 6 7 6 7 6 5 6 5 6 6 7 5 6 3 7
3 4 4 9 7 9 13 16 24 21 15 14 14 12 11 10 8 10 10 8 9 8 8 8 6 3 4 4 5 4 4 3 4 5 7 7 6 7 7 5 6 5 6 5 6 4 5 5 9
6 6 7 7 3 7 9 18 20 17 21 22 20 16 15 10 12 12 10 8 7 7 7 7 6 4 4 4 3 4 4 3 4 3 6 6 6 6 6 6 5 6 5 7 6 5 4 3 5
5 6 4 5 3 6 8 2 5 7 10 16 18 19 19 21 17 13 12 11 9 8 7 6 5 5 4 6 7 6 5 4 3 3 3 3 6 6 6 6 6 6 5 4 4 5 6 4 4
3 5 4 3 5 4 4 4 6 10 15 18 16 17 19 17 13 13 13 9 10 8 8 7 5 5 4 5 7 8 5 4 3 3 2 4 5 6 6 5 5 5 3 6 4 4 3 4 4
8 0 1 4 4 4 1 5 10 6 9 12 12 20 19 20 19 17 15 13 10 9 8 7 7 6 4 6 7 6 5 3 2 4 6 4 3 3 5 5 4 4 4 4 6 5 6 2 2
3 6 9 6 4 2 5 5 8 5 9 17 13 21 21 18 15 14 12 12 10 8 8 8 8 4 6 6 6 8 8 6 5 4 4 2 1 2 3 4 3 2 2 3 2 3 4 3 2
8 8 4 5 5 6 5 3 10 9 6 13 25 22 20 18 16 15 16 14 12 11 9 8 8 6 5 7 7 7 7 7 8 5 4 3 0 2 3 3 4 3 4 3 4 4 5 4 3
4 9 8 6 4 5 7 3 6 6 10 8 16 22 18 16 15 16 16 15 14 12 11 10 9 7 6 6 6 5 5 4 4 5 4 3 2 1 3 5 6 6 6 5 3 3 3 3 4
5 2 6 7 2 4 4 1 4 6 9 12 14 15 18 18 16 17 16 14 14 12 12 13 10 8 7 7 5 5 7 7 6 6 4 2 1 1 5 5 5 6 6 6 7 4 5 4 4
9 6 3 5 3 3 5 4 6 3 6 9 12 13 11 13 14 15 16 16 14 14 12 11 12 11 9 9 7 6 7 7 6 5 5 5 4 4 6 6 7 7 6 6 6 6 4 5 4
2 1 6 6 6 7 2 7 7 10 8 10 11 17 19 17 17 17 17 17 16 14 14 14 14 14 11 10 7 7 6 6 5 6 6 6 5 6 6 5 6 6 6 6 6 7 6 6 6
6 6 5 7 7 3 5 8 5 9 12 11 10 10 16 21 20 18 18 17 16 15 15 15 13 12 13 8 6 7 5 6 6 6 6 5 6 5 4 5 5 5 5 5 5 5 5 6 7
Wind_Direction
199 162 98 80 73 80 227 263 303 216 25 64 83 84 106 41 85 162 42 131 142 149 141 125 124 125 123 127 127 122 116 110 104 100 98 100 99 96 95 94 92 92 96 101 97 83 61 43 50
255 116 35 5 73 84 282 241 7 355 126 108 88 71 39 52 47 114 96 142 156 151 133 132 132 132 131 132 129 126 120 115 112 111 109 107 104 102 101 98 97 98 99 96 80 52 25 9 8
297 97 89 99 64 190 187 178 133 105 18 332 80 65 82 110 118 145 134 145 156 122 115 136 134 132 133 135 135 131 124 120 115 111 107 107 106 101 92 89 94 102 105 104 87 44 1 342 335
111 17 24 87 189 206 181 163 134 140 132 118 120 65 54 136 119 130 143 137 132 123 123 134 136 137 139 139 135 130 126 121 115 111 109 112 113 105 94 88 84 89 105 135 285 303 311 320 323
32 60 59 87 234 53 122 135 140 116 116 93 105 93 73 50 117 141 142 142 133 136 139 139 146 146 145 141 138 134 129 125 127 132 140 147 151 157 167 186 201 216 233 256 268 277 290 299 306
7 100 54 63 44 55 25 64 128 98 102 100 105 111 90 134 138 150 143 141 140 143 145 150 150 148 147 146 144 144 145 148 156 167 177 182 188 202 220 231 239 241 243 246 254 258 264 271 279
151 87 209 145 128 100 127 287 115 122 137 153 142 119 128 147 145 141 140 138 143 149 150 154 159 161 158 157 159 162 168 176 183 192 205 214 223 231 240 245 248 251 253 257 260 261 261 264 268
125 110 236 166 166 94 129 275 98 33 64 114 127 153 162 149 142 140 144 146 150 161 166 167 169 162 167 172 176 180 184 190 196 203 212 221 231 242 249 250 255 255 253 255 258 262 264 265 265
141 57 18 9 88 122 21 2 302 337 102 359 16 107 140 142 139 130 142 145 152 168 174 169 170 178 182 177 194 193 196 204 210 215 223 228 232 247 257 250 250 257 256 257 258 264 265 266 267
108 82 233 148 130 111 110 92 357 87 24 8 107 147 126 146 148 158 173 178 175 174 181 176 181 182 184 188 193 211 227 209 223 241 244 243 250 261 268 268 259 255 258 262 264 272 272 270 253
99 147 193 135 128 120 125 149 166 134 141 203 159 169 155 158 173 171 181 181 176 177 175 179 178 185 191 190 162 197 227 239 238 247 253 258 296 300 288 293 311 327 324 309 301 292 281 269 270
106 151 163 162 132 127 145 134 150 164 152 119 169 172 165 177 183 182 183 162 151 176 182 183 173 183 191 173 185 192 208 201 231 278 306 330 319 342 36 51 41 41 348 342 327 310 307 285 268
103 145 135 152 109 108 132 144 225 202 125 72 192 183 122 91 103 79 116 117 143 131 132 159 151 176 167 160 190 210 154 80 94 59 64 64 38 21 32 48 41 27 14 22 13 358 348 339 333
59 131 111 108 122 123 134 67 326 216 148 186 178 127 99 101 104 96 98 108 107 112 131 148 142 149 139 151 120 93 88 91 75 60 63 52 43 36 42 40 35 26 17 22 10 352 344 337 308
130 105 53 174 158 120 115 9 265 52 98 149 128 122 118 115 89 94 114 113 120 113 107 113 116 97 83 77 89 80 82 80 79 75 67 59 52 49 50 48 27 20 11 15 14 3 340 342 339
167 123 151 219 211 177 121 212 244 219 148 219 149 140 126 125 119 102 89 99 86 94 79 61 99 89 85 85 90 86 75 76 74 72 61 54 52 48 44 36 21 9 15 13 3 354 350 346 336
4 218 279 147 207 162 193 160 225 203 162 170 149 139 134 122 107 103 90 77 68 75 77 64 78 87 103 94 92 87 86 78 70 72 64 48 48 47 50 39 23 18 23 13 358 352 347 347 343
283 10 315 269 190 198 183 177 190 212 171 163 152 153 148 145 148 126 109 99 84 67 65 61 68 86 95 104 99 92 83 70 65 65 64 58 49 46 48 37 30 28 32 18 11 2 357 341 338
202 231 249 269 250 124 174 157 182 180 159 161 167 160 146 140 137 120 112 101 84 61 60 52 84 71 114 104 122 95 89 82 63 64 68 63 56 47 46 38 32 23 35 6 11 347 350 356 355
265 265 277 277 37 85 161 175 182 175 181 178 173 165 154 138 147 139 131 116 110 108 90 67 70 76 81 92 93 105 123 89 95 71 63 67 66 56 62 52 39 36 31 19 10 11 343 343 359
263 209 204 210 356 38 117 22 185 226 198 191 185 172 163 161 156 155 147 141 135 127 118 93 74 88 78 95 99 96 73 55 64 51 70 63 82 73 67 59 54 42 40 24 5 4 21 0 331
226 214 197 105 109 201 115 252 228 212 203 203 181 172 173 163 160 158 150 144 142 142 123 109 83 78 76 115 115 133 140 140 181 148 125 83 67 74 72 65 56 52 35 33 15 14 13 18 4
214 162 92 78 116 103 34 98 260 148 205 216 183 177 175 172 166 162 157 157 147 137 128 117 104 75 68 91 120 123 115 103 107 107 99 72 29 69 72 62 51 38 34 29 37 21 21 20 7
82 71 35 47 92 43 232 123 290 208 203 217 173 178 176 169 162 158 153 142 141 135 129 124 117 91 85 93 102 117 122 113 96 110 107 89 9 13 34 36 30 21 12 23 7 17 30 21 41
77 58 4 1 13 230 316 83 237 303 223 197 172 175 173 168 159 159 153 153 153 149 142 129 124 115 108 104 107 109 112 113 116 129 144 152 14 12 358 1 345 332 332 322 352 3 10 348 5
186 144 153 193 203 250 319 296 283 317 303 99 158 161 158 159 165 165 164 160 157 156 151 132 136 134 133 121 111 109 120 110 108 125 136 131 122 168 355 360 358 344 353 324 350 331 339 357 12
176 124 186 109 78 80 264 206 351 350 25 70 119 143 162 168 170 170 164 160 162 166 161 152 145 149 151 144 128 118 138 128 125 117 118 109 59 27 25 17 3 3 11 0 358 353 335 19 359
136 159 62 12 166 220 282 284 235 235 143 123 139 154 169 171 169 170 169 170 173 168 162 155 155 159 168 166 164 161 159 150 150 123 104 95 65 47 40 30 26 26 21 7 6 354 359 18 350
42 99 68 117 135 167 200 266 216 205 190 172 175 178 177 177 178 178 175 178 173 165 163 170 166 165 170 174 169 160 163 160 109 99 88 81 69 49 42 34 31 16 6 0 4 351 17 7 353
161 230 135 128 261 216 158 265 276 196 200 191 201 185 183 181 180 180 178 173 171 169 170 172 175 169 170 167 160 174 139 98 98 100 104 87 80 63 53 27 30 8 1 7 28 13 358 0 351